Weather History for Boscobel, WI

Change the Weather History Date:

Wednesday, September 12, 2012

  Actual Average (KPDC) Record (KPDC)
Temperature  
Mean Temperature 68 °F -  
Max Temperature 84 °F 79 °F 93 °F (1984)
Min Temperature 55 °F 53 °F 33 °F (1955)
Cooling Degree Days 4    
Growing Degree Days 18 (Base 50)    
Moisture  
Dew Point 53 °F    
Average Humidity 61    
Maximum Humidity 97    
Minimum Humidity 31    
Precipitation  
Precipitation 0.00 in - - ()
Sea Level Pressure  
Sea Level Pressure 30.08 in    
Wind  
Wind Speed 5 mph (NNW)    
Max Wind Speed 13 mph    
Max Gust Speed 21 mph    
Visibility 10 miles    
Events      
Averages and records for this station are not official NWS values.
T = Trace of Precipitation, MM = Missing Value Source: NWS Daily Summary

Daily Weather History Graph

Daily Weather History Graph

Search for Another Location

Airport:

Trip Planner

Search our weather history database for the weather conditions in past years. The results will help you decide how hot, cold, wet, or windy it might be!

Date:

Astronomy

Sep. 12, 2012 Rise Set
Actual Time 6:39 AM CDT 7:17 PM CDT
Civil Twilight 6:10 AM CDT 7:45 PM CDT
Nautical Twilight 5:36 AM CDT 8:19 PM CDT
Astronomical Twilight 5:01 AM CDT 8:54 PM CDT
Moon 2:51 AM CDT (9/12) 5:08 PM CDT (9/12)
Length of Visible Light 13h 34m
Length of Day
12h 37m
Waning Crescent, 13% of the Moon is Illuminated
Sep 12
Waning Crescent
Sep 15
New
Sep 22
First Quarter
Sep 29
Full
Oct 8
Last Quarter

Hourly Weather History & Observations

Time (CDT) Temp. Heat Index Dew Point Humidity Pressure Visibility Wind Dir Wind Speed Gust Speed Precip Events Conditions
12:53 AM 68.0 °F - 55.9 °F 65% 29.99 in 10.0 mi WSW 4.6 mph - N/A   Clear
1:53 AM 68.0 °F - 55.9 °F 65% 30.00 in 10.0 mi SSW 5.8 mph - N/A   Clear
2:53 AM 66.0 °F - 55.9 °F 70% 30.01 in 10.0 mi Calm Calm - N/A   Clear
3:53 AM 61.0 °F - 55.9 °F 83% 30.01 in 10.0 mi Calm Calm - N/A   Clear
4:53 AM 59.0 °F - 55.0 °F 87% 30.01 in 10.0 mi South 3.5 mph - N/A   Clear
5:53 AM 60.1 °F - 55.9 °F 86% 30.03 in 10.0 mi Calm Calm - N/A   Clear
6:53 AM 55.9 °F - 55.0 °F 97% 30.05 in 10.0 mi Calm Calm - N/A   Clear
7:53 AM 61.0 °F - 57.9 °F 90% 30.08 in 10.0 mi Calm Calm - N/A   Clear
8:53 AM 70.0 °F - 59.0 °F 68% 30.08 in 10.0 mi Variable 3.5 mph - N/A   Clear
9:53 AM 73.0 °F - 59.0 °F 61% 30.07 in 10.0 mi WSW 8.1 mph - N/A   Clear
10:53 AM 75.9 °F - 61.0 °F 60% 30.07 in 10.0 mi SW 5.8 mph - N/A   Clear
11:53 AM 78.1 °F - 61.0 °F 56% 30.07 in 10.0 mi SSW 5.8 mph - N/A   Clear
12:53 PM 82.0 °F 83.0 °F 62.1 °F 51% 30.06 in 10.0 mi Variable 5.8 mph - N/A   Clear
1:53 PM 82.9 °F 83.7 °F 62.1 °F 49% 30.06 in 10.0 mi Variable 3.5 mph - N/A   Clear
2:53 PM 82.0 °F 83.0 °F 62.1 °F 51% 30.06 in 10.0 mi NNW 8.1 mph - N/A   Overcast
3:53 PM 82.0 °F 82.4 °F 60.1 °F 47% 30.06 in 10.0 mi North 12.7 mph 16.1 mph N/A   Clear
4:53 PM 75.9 °F - 48.9 °F 38% 30.09 in 10.0 mi North 11.5 mph 16.1 mph N/A   Partly Cloudy
5:53 PM 72.0 °F - 39.9 °F 31% 30.12 in 10.0 mi North 8.1 mph 20.7 mph N/A   Partly Cloudy
6:53 PM 69.1 °F - 37.9 °F 32% 30.13 in 10.0 mi NNE 5.8 mph - N/A   Partly Cloudy
7:53 PM 66.9 °F - 39.0 °F 36% 30.14 in 10.0 mi NNE 12.7 mph 18.4 mph N/A   Overcast
8:53 PM 64.9 °F - 39.9 °F 40% 30.18 in 10.0 mi North 11.5 mph 16.1 mph N/A   Scattered Clouds
9:53 PM 62.1 °F - 45.0 °F 53% 30.20 in 10.0 mi North 9.2 mph - N/A   Overcast
10:53 PM 61.0 °F - 48.0 °F 62% 30.22 in 10.0 mi NNE 6.9 mph - N/A   Overcast
11:53 PM 59.0 °F - 51.1 °F 75% 30.22 in 10.0 mi North 6.9 mph - N/A   Overcast